TimeCST,TemperatureF,Dew PointF,Humidity,Sea Level PressureIn,VisibilityMPH,Wind Direction,Wind SpeedMPH,Gust SpeedMPH,PrecipitationIn,Events,Conditions,WindDirDegrees,DateUTC
12:35 AM,21.2,19.4,93,30.21,1.8,NW,4.6,-,0.00,Snow,Light Snow,310,2013-03-01 06:35:00
12:42 AM,19.4,19.4,100,30.21,0.8,NW,3.5,-,0.00,Snow,Light Snow,310,2013-03-01 06:42:00
12:53 AM,19.9,19.0,96,30.28,0.2,NNW,3.5,-,0.00,Fog,Light Freezing Fog,330,2013-03-01 06:53:00
1:03 AM,23.0,21.2,93,30.21,2.0,NNW,5.8,-,N/A,,Partly Cloudy,330,2013-03-01 07:03:00
1:11 AM,21.2,19.4,93,30.22,4.0,NW,5.8,-,0.00,Snow,Light Snow,310,2013-03-01 07:11:00
1:22 AM,19.4,17.6,93,30.22,2.5,WNW,4.6,-,0.00,,Mostly Cloudy,300,2013-03-01 07:22:00
1:30 AM,19.4,17.6,93,30.22,3.0,WNW,5.8,-,0.00,,Overcast,290,2013-03-01 07:30:00
1:53 AM,19.9,18.0,92,30.29,2.5,WNW,4.6,-,0.00,,Mostly Cloudy,300,2013-03-01 07:53:00
2:07 AM,21.2,19.4,93,30.22,4.0,WNW,5.8,-,N/A,,Scattered Clouds,300,2013-03-01 08:07:00
2:53 AM,19.0,17.1,92,30.29,5.0,WNW,5.8,-,0.00,Snow,Light Snow,300,2013-03-01 08:53:00
3:53 AM,21.0,19.0,92,30.27,6.0,NNW,6.9,-,0.00,,Partly Cloudy,330,2013-03-01 09:53:00
4:53 AM,21.0,19.0,92,30.28,7.0,North,5.8,-,N/A,,Mostly Cloudy,360,2013-03-01 10:53:00
5:39 AM,21.2,17.6,86,30.22,7.0,NNW,6.9,-,N/A,,Mostly Cloudy,330,2013-03-01 11:39:00
5:53 AM,21.2,19.4,93,30.22,6.0,NNW,6.9,-,N/A,,Overcast,330,2013-03-01 11:53:00
6:53 AM,21.9,19.0,89,30.32,7.0,NNW,6.9,-,N/A,,Overcast,330,2013-03-01 12:53:00
7:53 AM,23.0,21.0,92,30.33,6.0,NW,5.8,-,N/A,,Overcast,320,2013-03-01 13:53:00
8:53 AM,26.1,23.0,88,30.35,8.0,North,8.1,-,N/A,,Overcast,360,2013-03-01 14:53:00
9:19 AM,26.6,23.0,86,30.28,8.0,North,8.1,-,N/A,,Overcast,350,2013-03-01 15:19:00
9:53 AM,27.0,23.0,85,30.36,9.0,North,11.5,-,N/A,,Overcast,10,2013-03-01 15:53:00
10:53 AM,28.4,23.0,80,30.29,9.0,North,8.1,-,N/A,,Overcast,350,2013-03-01 16:53:00
11:28 AM,28.4,23.0,80,30.29,9.0,NNW,10.4,-,N/A,,Overcast,330,2013-03-01 17:28:00
11:53 AM,28.9,24.1,82,30.37,8.0,NNW,11.5,-,N/A,,Overcast,340,2013-03-01 17:53:00
12:26 PM,28.4,24.8,86,30.29,10.0,NNW,12.7,-,N/A,,Overcast,330,2013-03-01 18:26:00
12:53 PM,30.0,24.1,79,30.36,10.0,NW,13.8,-,N/A,,Overcast,320,2013-03-01 18:53:00
1:04 PM,30.2,24.8,80,30.28,10.0,NNW,13.8,-,N/A,,Overcast,330,2013-03-01 19:04:00
1:53 PM,30.9,25.0,79,30.34,10.0,NNW,13.8,-,N/A,,Mostly Cloudy,340,2013-03-01 19:53:00
2:53 PM,30.2,24.8,80,30.27,10.0,NNW,13.8,-,N/A,,Mostly Cloudy,340,2013-03-01 20:53:00
3:53 PM,30.9,24.1,76,30.34,10.0,NNW,12.7,-,N/A,,Overcast,330,2013-03-01 21:53:00
4:48 PM,32.0,24.8,75,30.27,10.0,North,12.7,-,N/A,,Scattered Clouds,350,2013-03-01 22:48:00
4:53 PM,33.8,24.8,70,30.27,10.0,North,13.8,-,N/A,,Scattered Clouds,350,2013-03-01 22:53:00
5:53 PM,30.2,24.8,80,30.28,10.0,North,11.5,-,N/A,,Clear,350,2013-03-01 23:53:00
6:53 PM,28.0,21.9,78,30.38,10.0,North,6.9,-,N/A,,Clear,10,2013-03-02 00:53:00
7:53 PM,25.0,21.0,85,30.39,10.0,Calm,Calm,-,N/A,,Clear,0,2013-03-02 01:53:00
8:53 PM,24.1,21.0,88,30.40,10.0,North,3.5,-,N/A,,Clear,350,2013-03-02 02:53:00
9:53 PM,23.0,19.9,88,30.40,10.0,NNW,4.6,-,N/A,,Clear,330,2013-03-02 03:53:00
10:53 PM,19.0,16.0,88,30.41,7.0,West,5.8,-,N/A,,Clear,260,2013-03-02 04:53:00
11:53 PM,17.1,16.0,96,30.41,4.0,WNW,4.6,-,N/A,,Clear,300,2013-03-02 05:53:00